Regional Weather Roundup
Issued by NWS

Home | Current Version | Previous Version | Graphics & Text | Print | Product List | Glossary On
Versions: 1 2 3 4 5 6 7 8 9 10 11 12 13 14 15 16 17 18 19 20 21 22 23 24 25 26 27 28 29 30 31 32 33 34 35 36 37 38 39 40 41 42 43 44 45 46 47 48 49 50
000
ASUS43 KDMX 280407
RWRIA

WEATHER ROUNDUP FOR IOWA
NATIONAL WEATHER SERVICE DES MOINES IA
1000 PM CST THU NOV 27 2014

NOTE: "FAIR" INDICATES FEW OR NO CLOUDS BELOW 12,000 FEET WITH NO
SIGNIFICANT WEATHER AND/OR OBSTRUCTIONS TO VISIBILITY.

* - THESE STATIONS ARE NOT NWS STATIONS...THUS NOT UNDER NWS
QUALITY CONTROL.  THEY ALSO DO NOT REPORT WEATHER SUCH
AS PRECIPITATION OR FOG.

IAZ001>003-012>014-020>022-031>034-043>046-280500-
   NORTHWEST IOWA

CITY           SKY/WX    TMP DP  RH WIND       PRES   REMARKS
CARROLL *      CLEAR     12   5  73 SE8       30.25F WCI   1
CHEROKEE *     MOCLDY    12   9  85 SE9       30.19F WCI   0
DENISON *      PTCLDY    18  10  73 SE5       30.20F WCI  11
LE MARS *      CLOUDY    18  10  73 SE12G20   30.14F WCI   5
ORANGE CITY *  MOCLDY    16   9  73 SE8       30.12F WCI   5
SHELDON *      CLOUDY    12   5  73 SE18      30.12F WCI  -5
SIOUX CITY     CLOUDY    20  11  68 SE14      30.16F WCI   7
SPENCER        CLOUDY    11   2  67 SE17      30.18F WCI  -6
STORM LAKE *   PTCLDY    10   5  79 SE14      30.19F WCI  -5
$$

IAZ055>058-069>071-079>083-090>094-280500-
   SOUTHWEST IOWA

CITY           SKY/WX    TMP DP  RH WIND       PRES   REMARKS
ATLANTIC *     PTCLDY    21  14  73 SE5       30.23R WCI  15
AUDUBON *      CLEAR     18  10  73 SE6       30.24R WCI   9
CLARINDA *     CLEAR     25  18  74 SE12      30.26F WCI  14
COUNCIL BLFS * CLEAR     21  18  86 SE10      30.17F WCI  10
CRESTON *      CLOUDY    19  14  79 SE13      30.25F WCI   7
HARLAN  *      CLOUDY    21  16  79 SE9       30.25R WCI  11
LAMONI         PTCLDY    21  14  74 SE8       30.28F WCI  11
RED OAK *      CLEAR     23  18  80 S15       30.21F WCI  10
SHENANDOAH *   CLEAR     25  19  80 SE18      30.22F WCI  11
$$

IAZ047>049-059>061-072>074-084-280500-
   CENTRAL IOWA

CITY           SKY/WX    TMP DP  RH WIND       PRES   REMARKS
AMES           CLOUDY    10   2  69 SE9       30.32F WCI  -3
ANKENY *       PTCLDY    12   3  67 SE7       30.31F WCI   2
CHARITON *     CLOUDY    18  10  73 SE12      30.30F WCI   5
DES MOINES     MOCLDY    15   4  61 SE8       30.31F WCI   4
GRINNELL*      CLOUDY    10   1  67 SE9       30.35F WCI  -2
KNOXVILLE *    CLOUDY    14   3  62 SE8       30.32F WCI   3
MARSHALLTOWN   CLOUDY    10   3  73 SE9       30.33F WCI  -3
PELLA *        MOCLDY    12   5  73 E6        30.35F WCI   3
PERRY *          N/A     14   7  73 E9        30.28F WCI   2
$$

IAZ004>006-015-016-023>025-035-036-280500-
   NORTH CENTRAL IOWA

CITY           SKY/WX    TMP DP  RH WIND       PRES   REMARKS
ALGONA *       CLOUDY     9   0  66 S16       30.24F WCI  -9
CLARION *      CLOUDY     9   1  72 S15       30.28S WCI  -8
ESTHERVILLE    CLOUDY     6  -1  73 SE15      30.20F WCI -12
FORT DODGE *   CLOUDY     9   1  72 SE5       30.28F WCI   0
MASON CITY     CLOUDY     8   0  69 SE12      30.29F WCI  -7
FOREST CITY *  FLURRIES  10   3  72 SE14      30.26F WCI  -5
IOWA FALLS *   CLOUDY    10   3  72 SE10      30.31F WCI  -3
$$

IAZ007>011-017>019-026>030-037>042-050>054-066-280500-
   NORTHEAST IOWA

CITY           SKY/WX    TMP DP  RH WIND       PRES   REMARKS
CEDAR RAPIDS   CLOUDY    11   5  77 S5        30.37F WCI   3
CHARLES CITY * CLOUDY     9   0  66 SE8       30.32F WCI  -4
CLINTON *      MOCLDY     7   1  78 E3        30.40F
DECORAH *      CLOUDY     9   1  72 CALM      30.31R
DUBUQUE        CLOUDY    11   5  77 E3        30.33F
MONTICELLO *   CLOUDY    10   3  72 CALM      30.37S
OELWEIN *      CLOUDY     9   1  72 S9        30.35S WCI  -5
WATERLOO       CLOUDY    10   2  69 S7        30.35F WCI  -1
$$

IAZ064-065-067-068-078-280500-
   EAST CENTRAL IOWA

CITY           SKY/WX    TMP DP  RH WIND       PRES   REMARKS
DAVENPORT      PTCLDY    10   3  73 SW3       30.40S
IOWA CITY      CLOUDY    11   6  81 SW5       30.42F WCI   3
MT. PLEASANT * CLOUDY    10   3  72 CALM      30.41F
MUSCATINE *    CLOUDY    12   5  73 S5        30.43F WCI   4
QUAD CITIES    PTCLDY    13   6  74 SW3       30.41S
$$

IAZ062-063-075>077-085>089-095>099-280500-
   SOUTHEAST IOWA

CITY           SKY/WX    TMP DP  RH WIND       PRES   REMARKS
BURLINGTON     CLOUDY    12   3  67 CALM      30.41F
FAIRFIELD *    CLOUDY    12   3  67 SE6       30.39F WCI   3
FORT MADISON * CLOUDY    14   7  73 CALM      30.41F
KEOKUK *       CLOUDY    18  10  73 E3        30.40F
OSKALOOSA *      N/A     12   3  67 E9        30.38F WCI   0
CENTERVILLE *    N/A     18  10  73 E7        30.35F WCI   8
OTTUMWA        CLOUDY    12   2  64 E8        30.36F WCI   0
WASHINGTON *   CLOUDY    10   7  85 CALM      30.40F
$$

ABBREVIATIONS USED IN REMARKS
   TC - TEMPERATURES IN CELSIUS
  WCI - WIND CHILL INDEX
   HX - HEAT INDEX
  VSB - VISIBILITY
$$



USA.gov is the U.S. government's official web portal to all federal, state and local government web resources and services.